User: anonymous   Login
Location: eljas
(40.1958°N, 6.8661°W)
Time: 10:29:36
(UTC+02:00)
Language:

Okean O Rocket - Orbit

View from above orbital plane
View from above orbital plane
View from above satellite
View from above satellite

Ground track
Ground track

The orbit data is extracted from the following two-line orbital elements,

1 25861U 99039B   17266.84921049  .00000017  00000-0  97568-5 0  9999
2 25861  98.1168 238.8867 0016834 121.4910 296.7093 14.78431522980357
Epoch (UTC): 23 September 2017 20:22:51
Eccentricity: 0.0016834
inclination: 98.1168°
perigee height: 622 km
apogee height: 646 km
right ascension of ascending node: 238.8867°
argument of perigee: 121.4910°
revolutions per day: 14.78431522
mean anomaly at epoch: 296.7093°
orbit number at epoch: 98035

The dashed part of the orbit path shows where the satellite is in the earth's shadow,  

DLR